Weather History for Abbotsford, BC

Change the Weather History Date:

Sunday, March 24, 2013

  Actual Average Record
Temperature  
Mean Temperature 42 °F -  
Max Temperature 53 °F 56 °F 62 °F (2001)
Min Temperature 32 °F 38 °F 32 °F (2002)
Degree Days  
Heating Degree Days 22    
Moisture  
Dew Point 29 °F    
Average Humidity 62    
Maximum Humidity 87    
Minimum Humidity 24    
Precipitation  
Precipitation 0.00 in 0.16 in - ()
Sea Level Pressure  
Sea Level Pressure 30.26 in    
Wind  
Wind Speed 5 mph ()    
Max Wind Speed 10 mph    
Max Gust Speed -    
Visibility 15.0 miles    
Events      
Averages and records for this station are not official NWS values.
T = Trace of Precipitation, MM = Missing Value Source: Averaged Metar Reports

Daily Weather History Graph

Daily Weather History Graph

Search for Another Location

Airport:

Trip Planner

Search our weather history database for the weather conditions in past years. The results will help you decide how hot, cold, wet, or windy it might be!

Date:

Astronomy

Mar. 24, 2013 Rise Set
Actual Time 7:03 AM PDT 7:29 PM PDT
Civil Twilight 6:31 AM PDT 8:00 PM PDT
Nautical Twilight 5:53 AM PDT 8:38 PM PDT
Astronomical Twilight 5:14 AM PDT 9:17 PM PDT
Moon 4:53 PM PDT (3/24) 5:28 AM PDT (3/24)
Length of Visible Light 13h 29m
Length of Day
12h 25m
Waxing Gibbous, 92% of the Moon is Illuminated
Mar 24
Waxing Gibbous
Mar 27
Full
Apr 2
Last Quarter
Apr 10
New
Apr 18
First Quarter

Hourly Weather History & Observations

Time (PDT) Temp. Windchill Dew Point Humidity Pressure Visibility Wind Dir Wind Speed Gust Speed Precip Events Conditions
12:00 AM 35.6 °F 29.9 °F 30.2 °F 81% 30.33 in 15.0 mi NNE 6.9 mph - N/A   Clear
1:00 AM 33.8 °F 27.7 °F 30.2 °F 87% 30.33 in 15.0 mi NNE 6.9 mph - N/A   Clear
2:00 AM 33.8 °F 27.7 °F 30.2 °F 87% 30.34 in 15.0 mi NNE 6.9 mph - N/A   Clear
3:00 AM 33.8 °F 28.6 °F 30.2 °F 87% 30.33 in 15.0 mi NE 5.8 mph - N/A   Clear
4:00 AM 33.8 °F 29.6 °F 30.2 °F 87% 30.32 in 15.0 mi NE 4.6 mph - N/A   Mostly Cloudy
5:00 AM 35 °F - 30 °F 74% 30.32 in 15 mi NNE 4.6 mph - -   Mostly Cloudy
5:00 AM 33.8 °F 29.6 °F 30.2 °F 87% 30.31 in 15.0 mi North 4.6 mph - N/A   Mostly Cloudy
6:00 AM 33.8 °F 29.6 °F 30.2 °F 87% 30.31 in 30.0 mi NNE 4.6 mph - N/A   Mostly Cloudy
7:00 AM 33.8 °F 30.8 °F 28.4 °F 81% 30.32 in 30.0 mi NNE 3.5 mph - N/A   Mostly Cloudy
8:00 AM 37.4 °F 31.4 °F 28.4 °F 70% 30.31 in 30.0 mi ENE 8.1 mph - N/A   Mostly Cloudy
9:00 AM 37.4 °F 33.8 °F 30.2 °F 75% 30.31 in 30.0 mi NNE 4.6 mph - N/A   Mostly Cloudy
10:00 AM 41.0 °F 34.7 °F 28.4 °F 61% 30.31 in 30.0 mi East 10.4 mph - N/A   Mostly Cloudy
11:00 AM 43 °F - 30 °F 47% 30.30 in 28 mi East 10.4 mph - -   Mostly Cloudy
11:00 AM 42.8 °F 37.5 °F 30.2 °F 61% 30.30 in 30.0 mi East 9.2 mph - N/A   Mostly Cloudy
12:00 PM 46.4 °F 41.9 °F 30.2 °F 53% 30.29 in 30.0 mi East 9.2 mph - N/A   Overcast
1:00 PM 48.2 °F - 28.4 °F 46% 30.27 in 30.0 mi NNE 4.6 mph - N/A   Overcast
2:00 PM 48.2 °F - 28.4 °F 46% 30.26 in 30.0 mi Calm Calm - N/A   Overcast
3:00 PM 51.8 °F - 26.6 °F 38% 30.23 in 30.0 mi North 5.8 mph - N/A   Mostly Cloudy
4:00 PM 51.8 °F - 24.8 °F 35% 30.21 in 30.0 mi Calm Calm - N/A   Scattered Clouds
5:00 PM 53 °F - 27 °F 24% 30.19 in 28 mi NE 4.6 mph - -   Clear
5:00 PM 53.6 °F - 26.6 °F 35% 30.19 in 30.0 mi North 4.6 mph - N/A   Scattered Clouds
6:00 PM 53.6 °F - 26.6 °F 35% 30.17 in 30.0 mi Calm Calm - N/A   Scattered Clouds
7:00 PM 50.0 °F - 30.2 °F 47% 30.16 in 30.0 mi East 4.6 mph - N/A   Scattered Clouds
8:00 PM 46.4 °F 44.3 °F 30.2 °F 53% 30.16 in 30.0 mi NNE 4.6 mph - N/A   Scattered Clouds
9:00 PM 44.6 °F 42.2 °F 30.2 °F 57% 30.16 in 15.0 mi North 4.6 mph - N/A   Scattered Clouds
10:00 PM 42.8 °F 38.6 °F 32.0 °F 66% 30.16 in 15.0 mi NE 6.9 mph - N/A   Partly Cloudy
11:00 PM 41 °F - 32 °F 62% 30.16 in 15 mi NNE 6.9 mph - -   Mostly Cloudy
11:00 PM 41.0 °F 36.4 °F 32.0 °F 70% 30.16 in 15.0 mi NNE 6.9 mph - N/A   Mostly Cloudy